Location: Alvis C Story Elementary School
(33.0968°N, 96.6364°W)
Time: 13:12:39
(UTC+00:00)

Cosmos 1328 Rocket - Visible Passes

Search period start: 04 July 2022 00:00
Search period end: 14 July 2022 00:00
Orbit: 602 x 625 km, 82.5° (Epoch: 04 July)

Date Brightness Start Highest point End Pass type
(mag) Time Alt. Az. Time Alt. Az. Time Alt. Az.
04 Jul 3.6 08:42:15 10° N 08:46:32 72° ENE 08:46:32 72° ENE visible
05 Jul 3.9 08:57:56 10° NNW 09:01:38 51° WNW 09:01:38 51° WNW visible
06 Jul 5.9 07:37:05 10° NNE 07:39:45 17° ENE 07:39:45 17° ENE visible
06 Jul 4.9 09:13:59 10° NNW 09:16:45 26° WNW 09:16:45 26° WNW visible
07 Jul 5.3 07:51:52 10° NNE 07:54:54 29° NE 07:54:54 29° NE visible
07 Jul 5.6 09:30:38 10° NW 09:31:54 14° WNW 09:31:54 14° WNW visible
08 Jul 4.8 08:07:09 10° N 08:10:05 40° NNE 08:10:05 40° NNE visible
09 Jul 4.9 08:22:46 10° NNW 08:25:18 33° NNW 08:25:18 33° NNW visible
10 Jul 6.3 07:02:13 10° NE 07:03:31 14° NE 07:03:31 14° NE visible
10 Jul 5.4 08:38:44 10° NNW 08:40:32 21° NW 08:40:32 21° NW visible
11 Jul 5.9 07:16:50 10° NNE 07:18:46 21° NE 07:18:46 21° NE visible
11 Jul 6.0 08:55:12 10° NW 08:55:48 12° NW 08:55:48 12° NW visible
12 Jul 5.6 07:32:02 10° N 07:34:03 25° NNE 07:34:03 25° NNE visible
13 Jul 5.6 07:47:36 10° N 07:49:21 23° NNW 07:49:21 23° NNW visible
